Weather Roundup
Issued by NWS

Home | Current Version | Previous Version | Text Only | Print | Product List | Glossary On
Versions: 1 2 3 4 5 6 7 8 9 10 11 12 13 14 15 16 17 18 19 20 21 22 23 24 25 26 27 28 29 30 31 32 33 34 35 36 37 38 39 40 41 42 43 44 45 46 47 48 49 50
000
NZUS93 KARX 280959
HRRWXR

CURRENT HOURLY OBSERVATIONS ACROSS
MUCH OF THE UPPER MISSISSIPPI VALLEY
NATIONAL WEATHER SERVICE LA CROSSE WI
400 AM CST SUN DEC 28 2014


...SOUTHEAST MINNESOTA...


CITY           SKY/WX    TMP DP  RH WIND       PRES   REMARKS
ROCHESTER      CLEAR      5   3  91 SW5       30.09S WCI  -4
ROCHESTER/MAYO FAIR      12   8  84 SW3       30.10S
WINONA         CLEAR     10   7  85 CALM      30.14F
AUSTIN         CLEAR      7   3  85 CALM      30.10S
ALBERT LEA     CLEAR     10   9  92 SW3       30.09F
DODGE CENTER   PTCLDY     7   3  85 SW7       30.07F WCI  -5
PRESTON        CLEAR      8   5  88 SW5       30.10F WCI   0
OWATONNA       CLEAR      9   5  85 CALM      30.08F
FARIBAULT      MOCLDY     7   5  92 S3        30.09F
$$

...ELSEWHERE IN MINNESOTA...


CITY           SKY/WX    TMP DP  RH WIND       PRES   REMARKS
MINNEAPOLIS    CLEAR     11   6  81 SW5       30.10S WCI   3
INTNL FALLS    CLOUDY    -2  -6  83 NW12      30.08R WCI -20
DULUTH         FLURRIES  18  11  74 NW8       29.98S WCI   8
RED WING       CLOUDY     7   1  78 CALM      30.11R
REDWOOD FALLS  MOCLDY    11   8  88 SW9       30.08S WCI  -2
MANKATO        CLEAR      9   3  78 S5        30.09S WCI   0
WORTHINGTON    PTCLDY    10 -31  13 SW8       30.07S WCI  -1
FAIRMONT       CLEAR      9   3  78 CALM      30.08F
$$

...SOUTHWEST WISCONSIN...


CITY           SKY/WX    TMP DP  RH WIND       PRES   REMARKS
LA CROSSE      CLEAR     14   9  80 S5        30.14F WCI   6
PRAIRIE DU CHI FAIR      18  12  79 W3        30.17S
BOSCOBEL       CLEAR     16  11  80 S5        30.15F WCI   9
LONE ROCK      NOT AVBL
PLATTEVILLE    CLEAR     16  13  88 CALM      30.14F
FORT MC COY    CLEAR     14  10  85 CALM      30.12F
VIROQUA        FAIR      14  14  98 SW7       30.09F WCI   4
WIS DELLS      NOT AVBL
$$

...ELSEWHERE IN WISCONSIN...


CITY           SKY/WX    TMP DP  RH WIND       PRES   REMARKS
MILWAUKEE      PTCLDY    26  18  71 W10       30.09S WCI  16
MADISON        CLEAR     20  14  77 SW3       30.11S
GREEN BAY      CLEAR     23  17  78 W9        30.06F WCI  13
EAU CLAIRE     CLOUDY    12   7  80 W5        30.09S WCI   4
BLACK RVR FLS  FAIR       9   6  89 CALM      30.11S
MEDFORD        MOCLDY     6   4  88 W5        30.02S WCI  -2
WAUSAU         CLEAR     10   6  84 W3        30.03S
WIS RAPIDS     CLEAR     14   9  80 W6        30.09F WCI   5
MARSHFIELD     CLEAR      8   4  83 W7        30.04F WCI  -3
RICE LAKE      MOCLDY    11   9  88 CALM      30.08S
$$

...NORTHEAST IOWA...


CITY           SKY/WX    TMP DP  RH WIND       PRES   REMARKS
DECORAH        CLEAR     14  10  85 W3        30.12F
MASON CITY     CLEAR      4   1  88 CALM      30.13F
CHARLES CITY   PTCLDY    10   7  85 CALM      30.14S
OELWEIN        CLEAR     16  12  86 SW5       30.15S WCI   9
$$

...ELSEWHERE IN IOWA...


CITY           SKY/WX    TMP DP  RH WIND       PRES   REMARKS
DES MOINES     CLEAR     17  13  84 S7        30.19F WCI   8
IOWA CITY      CLEAR     17  14  88 W5        30.21F WCI  10
FORT DODGE     CLEAR      9   3  78 S3        30.14S
$$

...NORTHERN ILLINOIS...


CITY           SKY/WX    TMP DP  RH WIND       PRES   REMARKS
CHICAGO-OHARE  CLEAR     25  19  78 W10       30.12R WCI  15
CHICAGO-MIDWAY CLOUDY    30  22  72 W9        30.12S WCI  22
MOLINE         CLEAR     20  16  84 W8        30.20S WCI  10
ROCKFORD       CLEAR     21  16  81 W7        30.16S WCI  12
PEORIA         FAIR      26  18  71 NW6       30.20S WCI  19
$$

NOTE: "FAIR" INDICATES FEW OR NO CLOUDS BELOW 12,000 FEET WITH NO
SIGNIFICANT WEATHER AND/OR OBSTRUCTIONS TO VISIBILITY. WIND
SPEEDS ARE IN MILES-PER-HOUR.



USA.gov is the U.S. government's official web portal to all federal, state and local government web resources and services.